Miscellaneous Local Product
Issued by NWS Hastings, NE

Home | Current Version | Previous Version | Graphics & Text | Print | Product List | Glossary On
Versions: 1 2 3 4 5 6 7 8 9 10 11 12 13 14 15 16 17 18 19 20 21 22 23 24 25 26 27 28 29 30 31 32 33 34 35 36 37 38 39 40 41 42 43 44 45 46 47 48 49 50
000
AXUS43 KGID 290002
MISGRI

GID CWA HOURLY WEATHER ROUNDUP
NATIONAL WEATHER SERVICE HASTINGS NE
600 PM CST FRI NOV 28 2014

NOTE: "FAIR" INDICATES FEW OR NO CLOUDS BELOW 12,000 FEET WITH NO
SIGNIFICANT WEATHER AND/OR OBSTRUCTIONS TO VISIBILITY.

...SOUTH CENTRAL NEBRASKA...

CITY           SKY/WX    TMP DP  RH WIND       PRES   REMARKS
GRAND ISLAND   CLOUDY    55  26  32 W9        29.66R
HASTINGS       CLOUDY    59  23  25 SW7       29.66F
KEARNEY        CLOUDY    63  19  19 SW10      29.69S
ORD            MOCLDY    52  22  30 NW5       29.63S
YORK           CLOUDY    52  34  50 S10       29.65S
AURORA         CLOUDY    56  28  34 SW10      29.65S
LEXINGTON      CLOUDY    58  19  22 W10       29.69S
HOLDREGE       CLOUDY    62  14  15 W9        29.69S
HEBRON         CLOUDY    51  29  42 CALM      29.68F

...NEBRASKA PANHANDLE...

CITY           SKY/WX    TMP DP  RH WIND       PRES   REMARKS
CHADRON        PTCLDY   N/A N/A N/A SW13      29.64S
ALLIANCE       MOCLDY    47  20  34 S10       29.71R
SCOTTSBLUFF    MOCLDY    51  23  33 CALM      29.73R
SIDNEY         CLOUDY    52  21  29 W13       29.77S

...WESTERN AND NORTH CENTRAL NEBRASKA...

CITY           SKY/WX    TMP DP  RH WIND       PRES   REMARKS
VALENTINE      MOCLDY    47  26  44 S7        29.61F
AINSWORTH      CLOUDY    46  28  48 S6        29.62S
ONEILL         CLOUDY    50  31  47 CALM      29.62F
BROKEN BOW     MOCLDY    53  22  29 SW9       29.66S
IMPERIAL       MOCLDY    55  18  23 W3        29.73F
NORTH PLATTE   MOCLDY    52  22  30 NW5       29.70S
MCCOOK         MOCLDY    67  10  11 NW7       29.71S

...EASTERN NEBRASKA...

CITY           SKY/WX    TMP DP  RH WIND       PRES   REMARKS
NORFOLK        CLOUDY    46  31  55 NE5       29.62R
SO SIOUX CITY  CLEAR     39  30  70 SE10      29.66F WCI  32
TEKAMAH        PTCLDY    42  29  59 SE13      29.66F
COLUMBUS       CLOUDY    52  30  43 CALM      29.63F
ALBION         CLOUDY    49  23  36 CALM      29.63R
OMAHA EPPLEY   MOCLDY    42  30  62 SE8       29.70R
OFFUTT AFB     PTCLDY    37  29  73 E5        29.68S WCI  33
MILLARD        PTCLDY    47  32  56 SE5       29.67F
LINCOLN        MOCLDY    49  30  48 SE5       29.67S
NEBRASKA CITY  PTCLDY    50  27  41 S15       29.68F
BEATRICE       MOCLDY    54  32  43 S10       29.70S
FALLS CITY     PTCLDY    47  32  56 SE9       29.72R

...NORTHERN KANSAS...

CITY           SKY/WX    TMP DP  RH WIND       PRES   REMARKS
GOODLAND       CLOUDY    48  15  26 CALM      29.77S
HILL CITY      MOCLDY    57  20  23 CALM      29.73R
NORTON         CLEAR     61  10  13 S3        29.71S
PHILLIPSBURG   CLEAR     63  25  23 SW3       29.71R
SMITH CENTER   CLEAR     55  27  33 S8        29.70S
BELOIT         CLEAR     59  30  33 SE9       29.70S
HAYS           PTCLDY    61  21  21 S7        29.74R
RUSSELL        PTCLDY    55  32  41 S13       29.73R
CONCORDIA      CLOUDY    59  34  39 S13G22    29.71S
SALINA         MOCLDY    55  35  47 S9        29.76R
TOPEKA         MOCLDY    57  34  41 S7        29.78R



USA.gov is the U.S. government's official web portal to all federal, state and local government web resources and services.